Starlink 32902

operational
NORAD ID: 62898 Int'l Des: 2025-024 Owner: SPXS Country: US Constellation: starlink
LEOCIRCULAR

About Starlink 32902

Description loading...

Live Position

Loading 3D Globe...

Upcoming Passes

Altitude History

Altitude vs Time

uPlot chart will show altitude changes over time

Two-Line Element Set

1 62898U 25024V 25259.25899156 .00024917 00000-0 91096-3 0 9995
2 62898 43.0004 230.0490 0001485 261.7980 98.2703 15.27615419 35597
Epoch: Sep 16, 2025 • Age: 16 hours

Current Status

Altitude 482.4 km
Velocity 7.63 km/s
Sub-Earth Point 18.02°N, 51.14°E
Launch Date Feb 4, 2025
Age 0.6 years
Type internet

Technical Details

Classification Payload
Mass 730.00 kg
Dry Mass 700.00 kg
Total Mass 730.00 kg
Length 0.30 m
Diameter 4.10 m
Span 29.00 m
Shape Box + pan
Manufacturer SPXS
Bus Type Starlink V2M
Phase Status In Orbit
Owner/State SPXS/US

Large Constellations

Loading constellations...